Voltar ao catálogo

FENGYUN 1C DEB

AtivoSSO
NORAD 30320·DEBRIS·🇨🇳 China

Lançado May 10, 1999 de Taiyuan Satellite Launch Center

Loading…

Próximas Passagens (próximas 24 horas)

TLE

AtualizadoSource: Space-Track

Época: Sep 14, 2026, 15:53 UTC

1 30320U 99025AAH 26257.66244698 -.00000057  00000-0 -79340-5 0  9992
2 30320  99.1540 321.9323 0084937 257.9217 256.6546 13.98697757  2531

Acompanhe FENGYUN 1C DEB em tempo real com AllMySat

Download on the App Store